Weather History for Clemson, SC

Change the Weather History Date:

Thursday, January 17, 2002

  Actual Average Record
Temperature  
Mean Temperature 46 °F -  
Max Temperature 63 °F 52 °F 76 °F (1943)
Min Temperature 28 °F 26 °F 3 °F (1977)
Degree Days  
Heating Degree Days 20    
Moisture  
Dew Point 30 °F    
Average Humidity 58    
Maximum Humidity 96    
Minimum Humidity 31    
Precipitation  
Precipitation 0.00 in - - ()
Sea Level Pressure  
Sea Level Pressure 30.11 in    
Wind  
Wind Speed 5 mph (WSW)    
Max Wind Speed 16 mph    
Max Gust Speed 24 mph    
Visibility 10 miles    
Events      
Averages and records for this station are not official NWS values.
T = Trace of Precipitation, MM = Missing Value Source: NWS Daily Summary

Daily Weather History Graph

Daily Weather History Graph

Search for Another Location

Airport:

Trip Planner

Search our weather history database for the weather conditions in past years. The results will help you decide how hot, cold, wet, or windy it might be!

Date:

Astronomy

Jan. 17, 2002 Rise Set
Actual Time 7:37 AM EST 5:45 PM EST
Civil Twilight 7:10 AM EST 6:13 PM EST
Nautical Twilight 6:39 AM EST 6:44 PM EST
Astronomical Twilight 6:09 AM EST 7:14 PM EST
Moon 10:20 AM EST (1/17) 9:40 PM EST (1/17)
Length of Visible Light 11h 02m
Length of Day
10h 08m
Waxing Crescent, 15% of the Moon is Illuminated
Jan 17
Waxing Crescent
Jan 21
First Quarter
Jan 28
Full
Feb 4
Last Quarter
Feb 12
New

Hourly Weather History & Observations

Time (EST) Temp. Windchill Dew Point Humidity Pressure Visibility Wind Dir Wind Speed Gust Speed Precip Events Conditions
12:54 AM 33.1 °F - 32.0 °F 96% 30.19 in 9.0 mi Calm Calm - N/A   Clear
1:54 AM 30.0 °F - 27.0 °F 88% 30.19 in 9.0 mi Calm Calm - N/A   Clear
2:54 AM 30.9 °F 27.5 °F 28.0 °F 89% 30.17 in 9.0 mi South 3.5 mph - N/A   Clear
3:54 AM 28.9 °F - 25.0 °F 85% 30.15 in 10.0 mi Calm Calm - N/A   Clear
4:54 AM 32.0 °F 27.5 °F 25.0 °F 75% 30.14 in 10.0 mi SW 4.6 mph - N/A   Clear
5:54 AM 33.1 °F 28.7 °F 24.1 °F 70% 30.12 in 10.0 mi SW 4.6 mph - N/A   Clear
6:54 AM 34.0 °F 31.0 °F 25.0 °F 70% 30.13 in 10.0 mi SW 3.5 mph - N/A   Clear
7:54 AM 28.9 °F - 26.1 °F 89% 30.14 in 10.0 mi Calm Calm - N/A   Clear
8:54 AM 33.1 °F 30.0 °F 28.0 °F 82% 30.14 in 10.0 mi ESE 3.5 mph - N/A   Clear
9:54 AM 41.0 °F - 30.0 °F 65% 30.15 in 10.0 mi Calm Calm - N/A   Clear
10:54 AM 51.1 °F - 28.0 °F 41% 30.15 in 10.0 mi West 8.1 mph - N/A   Clear
11:54 AM 57.0 °F - 30.0 °F 36% 30.12 in 10.0 mi West 10.4 mph - N/A   Clear
12:54 PM 60.1 °F - 32.0 °F 35% 30.09 in 10.0 mi West 11.5 mph - N/A   Clear
1:54 PM 63.0 °F - 32.0 °F 31% 30.06 in 10.0 mi West 16.1 mph - N/A   Clear
2:54 PM 62.1 °F - 32.0 °F 32% 30.06 in 10.0 mi West 15.0 mph 23.0 mph N/A   Clear
3:54 PM 61.0 °F - 32.0 °F 34% 30.07 in 10.0 mi West 15.0 mph 21.9 mph N/A   Clear
4:54 PM 59.0 °F - 32.0 °F 36% 30.07 in 10.0 mi West 12.7 mph 24.2 mph N/A   Clear
5:54 PM 57.0 °F - 32.0 °F 39% 30.07 in 10.0 mi West 9.2 mph - N/A   Clear
6:54 PM 55.9 °F - 32.0 °F 40% 30.08 in 10.0 mi West 12.7 mph - N/A   Clear
7:54 PM 55.0 °F - 32.0 °F 42% 30.08 in 10.0 mi West 12.7 mph - N/A   Clear
8:54 PM 53.1 °F - 35.1 °F 50% 30.09 in 10.0 mi WSW 9.2 mph - N/A   Clear
9:54 PM 53.1 °F - 35.1 °F 50% 30.06 in 10.0 mi SW 6.9 mph - N/A   Clear
10:54 PM 52.0 °F - 35.1 °F 53% 30.05 in 10.0 mi SW 6.9 mph - N/A   Clear
11:54 PM 50.0 °F - 35.1 °F 57% 30.05 in 10.0 mi WSW 6.9 mph - N/A   Clear